Year,Month,Day,Hour,Minute,Value (Times are PST for temperature in C)
2010,05,20,00,00,8.40
2010,05,20,00,01,8.40
2010,05,20,00,02,8.40
2010,05,20,00,03,8.40
2010,05,20,00,04,8.30
2010,05,20,00,05,8.30
2010,05,20,00,06,8.30
2010,05,20,00,07,8.30
2010,05,20,00,08,8.30
2010,05,20,00,09,8.30
2010,05,20,00,10,8.30
2010,05,20,00,11,8.30
2010,05,20,00,12,8.30
2010,05,20,00,13,8.30
2010,05,20,00,14,8.30
2010,05,20,00,15,8.30
2010,05,20,00,16,8.30
2010,05,20,00,17,8.30
2010,05,20,00,18,8.30
2010,05,20,00,19,8.30
2010,05,20,00,20,8.20
2010,05,20,00,21,8.20
2010,05,20,00,22,8.20
2010,05,20,00,23,8.20
2010,05,20,00,24,8.20
2010,05,20,00,25,8.20
2010,05,20,00,26,8.20
2010,05,20,00,27,8.10
2010,05,20,00,28,8.10
2010,05,20,00,29,8.10
2010,05,20,00,30,8.10
2010,05,20,00,31,8.00
2010,05,20,00,32,8.00
2010,05,20,00,33,8.00
2010,05,20,00,34,8.00
2010,05,20,00,35,7.90
2010,05,20,00,36,7.90
2010,05,20,00,37,7.90
2010,05,20,00,38,7.90
2010,05,20,00,39,7.90
2010,05,20,00,40,7.90
2010,05,20,00,41,7.90
2010,05,20,00,42,7.90
2010,05,20,00,43,7.80
2010,05,20,00,44,7.80
2010,05,20,00,45,7.80
2010,05,20,00,46,7.80
2010,05,20,00,47,7.80
2010,05,20,00,48,7.80
2010,05,20,00,49,7.80
2010,05,20,00,50,7.80
2010,05,20,00,51,7.80
2010,05,20,00,52,7.80
2010,05,20,00,53,7.80
2010,05,20,00,54,7.80
2010,05,20,00,55,7.80
2010,05,20,00,56,7.80
2010,05,20,00,57,7.80
2010,05,20,00,58,7.80
2010,05,20,00,59,7.80
2010,05,20,01,00,7.80
2010,05,20,01,01,7.80
2010,05,20,01,02,7.80
2010,05,20,01,03,7.80
2010,05,20,01,04,7.80
2010,05,20,01,05,7.80
2010,05,20,01,06,7.70
2010,05,20,01,07,7.70
2010,05,20,01,08,7.70
2010,05,20,01,09,7.80
2010,05,20,01,10,7.80
2010,05,20,01,11,7.80
2010,05,20,01,12,7.80
2010,05,20,01,13,7.80
2010,05,20,01,14,7.70
2010,05,20,01,15,7.80
2010,05,20,01,16,7.70
2010,05,20,01,17,7.70
2010,05,20,01,18,7.70
2010,05,20,01,19,7.70
2010,05,20,01,20,7.70
2010,05,20,01,21,7.70
2010,05,20,01,22,7.70
2010,05,20,01,23,7.70
2010,05,20,01,24,7.70
2010,05,20,01,25,7.60
2010,05,20,01,26,7.60
2010,05,20,01,27,7.60
2010,05,20,01,28,7.60
2010,05,20,01,29,7.60
2010,05,20,01,30,7.60
2010,05,20,01,31,7.60
2010,05,20,01,32,7.60
2010,05,20,01,33,7.60
2010,05,20,01,34,7.60
2010,05,20,01,35,7.60
2010,05,20,01,36,7.60
2010,05,20,01,37,7.60
2010,05,20,01,38,7.50
2010,05,20,01,39,7.50
2010,05,20,01,40,7.50
2010,05,20,01,41,7.50
2010,05,20,01,42,7.60
2010,05,20,01,43,7.60
2010,05,20,01,44,7.60
2010,05,20,01,45,7.60
2010,05,20,01,46,7.50
2010,05,20,01,47,7.50
2010,05,20,01,48,7.50
2010,05,20,01,49,7.50
2010,05,20,01,50,7.50
2010,05,20,01,51,7.40
2010,05,20,01,52,7.40
2010,05,20,01,53,7.40
2010,05,20,01,54,7.40
2010,05,20,01,55,7.40
2010,05,20,01,56,7.30
2010,05,20,01,57,7.30
2010,05,20,01,58,7.30
2010,05,20,01,59,7.30
2010,05,20,02,00,7.30
2010,05,20,02,01,7.30
2010,05,20,02,02,7.40
2010,05,20,02,03,7.50
2010,05,20,02,04,7.50
2010,05,20,02,05,7.60
2010,05,20,02,06,7.60
2010,05,20,02,07,7.60
2010,05,20,02,08,7.60
2010,05,20,02,09,7.60
2010,05,20,02,10,7.60
2010,05,20,02,11,7.60
2010,05,20,02,12,7.50
2010,05,20,02,13,7.50
2010,05,20,02,14,7.50
2010,05,20,02,15,7.50
2010,05,20,02,16,7.60
2010,05,20,02,17,7.60
2010,05,20,02,18,7.60
2010,05,20,02,19,7.60
2010,05,20,02,20,7.70
2010,05,20,02,21,7.70
2010,05,20,02,22,7.70
2010,05,20,02,23,7.70
2010,05,20,02,24,7.70
2010,05,20,02,25,7.70
2010,05,20,02,26,7.80
2010,05,20,02,27,7.80
2010,05,20,02,28,7.80
2010,05,20,02,29,7.80
2010,05,20,02,30,7.80
2010,05,20,02,31,7.80
2010,05,20,02,32,7.80
2010,05,20,02,33,7.80
2010,05,20,02,34,7.80
2010,05,20,02,35,7.70
2010,05,20,02,36,7.80
2010,05,20,02,37,7.80
2010,05,20,02,38,7.80
2010,05,20,02,39,7.80
2010,05,20,02,40,7.90
2010,05,20,02,41,7.90
2010,05,20,02,42,7.90
2010,05,20,02,43,7.90
2010,05,20,02,44,7.90
2010,05,20,02,45,7.90
2010,05,20,02,46,7.90
2010,05,20,02,47,7.90
2010,05,20,02,48,7.90
2010,05,20,02,49,7.90
2010,05,20,02,50,7.80
2010,05,20,02,51,7.80
2010,05,20,02,52,7.80
2010,05,20,02,53,7.80
2010,05,20,02,54,7.80
2010,05,20,02,55,7.80
2010,05,20,02,56,7.80
2010,05,20,02,57,7.80
2010,05,20,02,58,7.80
2010,05,20,02,59,7.80
2010,05,20,03,00,7.80
2010,05,20,03,01,7.80
2010,05,20,03,02,7.80
2010,05,20,03,03,7.80
2010,05,20,03,04,7.80
2010,05,20,03,05,7.80
2010,05,20,03,06,7.80
2010,05,20,03,07,7.80
2010,05,20,03,08,7.90
2010,05,20,03,09,7.90
2010,05,20,03,10,7.90
2010,05,20,03,11,7.80
2010,05,20,03,12,7.80
2010,05,20,03,13,7.80
2010,05,20,03,14,7.80
2010,05,20,03,15,7.80
2010,05,20,03,16,7.80
2010,05,20,03,17,7.80
2010,05,20,03,18,7.80
2010,05,20,03,19,7.80
2010,05,20,03,20,7.80
2010,05,20,03,21,7.80
2010,05,20,03,22,7.80
2010,05,20,03,23,7.80
2010,05,20,03,24,7.80
2010,05,20,03,25,7.80
2010,05,20,03,26,7.80
2010,05,20,03,27,7.80
2010,05,20,03,28,7.80
2010,05,20,03,29,7.80
2010,05,20,03,30,7.80
2010,05,20,03,31,7.80
2010,05,20,03,32,7.70
2010,05,20,03,33,7.70
2010,05,20,03,34,7.70
2010,05,20,03,35,7.70
2010,05,20,03,36,7.80
2010,05,20,03,37,7.80
2010,05,20,03,38,7.80
2010,05,20,03,39,7.90
2010,05,20,03,40,7.90
2010,05,20,03,41,8.00
2010,05,20,03,42,8.10
2010,05,20,03,43,8.10
2010,05,20,03,44,8.10
2010,05,20,03,45,8.10
2010,05,20,03,46,8.10
2010,05,20,03,47,8.10
2010,05,20,03,48,8.10
2010,05,20,03,49,8.10
2010,05,20,03,50,8.10
2010,05,20,03,51,8.10
2010,05,20,03,52,8.10
2010,05,20,03,53,8.10
2010,05,20,03,54,8.10
2010,05,20,03,55,8.10
2010,05,20,03,56,8.10
2010,05,20,03,57,8.10
2010,05,20,03,58,8.10
2010,05,20,03,59,8.10
2010,05,20,04,00,8.00
2010,05,20,04,01,8.10
2010,05,20,04,02,8.10
2010,05,20,04,03,8.10
2010,05,20,04,04,8.10
2010,05,20,04,05,8.10
2010,05,20,04,06,8.10
2010,05,20,04,07,8.10
2010,05,20,04,08,8.10
2010,05,20,04,09,8.10
2010,05,20,04,10,8.10
2010,05,20,04,11,8.00
2010,05,20,04,12,8.00
2010,05,20,04,13,7.90
2010,05,20,04,14,7.90
2010,05,20,04,15,7.90
2010,05,20,04,16,7.90
2010,05,20,04,17,7.80
2010,05,20,04,18,7.80
2010,05,20,04,19,7.80
2010,05,20,04,20,7.90
2010,05,20,04,21,7.90
2010,05,20,04,22,7.90
2010,05,20,04,23,7.90
2010,05,20,04,24,7.90
2010,05,20,04,25,7.90
2010,05,20,04,26,7.90
2010,05,20,04,27,7.90
2010,05,20,04,28,7.90
2010,05,20,04,29,7.90
2010,05,20,04,30,7.90
2010,05,20,04,31,7.90
2010,05,20,04,32,7.90
2010,05,20,04,33,7.90
2010,05,20,04,34,7.90
2010,05,20,04,35,7.90
2010,05,20,04,36,7.90
2010,05,20,04,37,7.90
2010,05,20,04,38,7.90
2010,05,20,04,39,7.90
2010,05,20,04,40,7.90
2010,05,20,04,41,7.90
2010,05,20,04,42,7.90
2010,05,20,04,43,7.90
2010,05,20,04,44,7.80
2010,05,20,04,45,7.80
2010,05,20,04,46,7.80
2010,05,20,04,47,7.80
2010,05,20,04,48,7.70
2010,05,20,04,49,7.70
2010,05,20,04,50,7.70
2010,05,20,04,51,7.70
2010,05,20,04,52,7.70
2010,05,20,04,53,7.70
2010,05,20,04,54,7.70
2010,05,20,04,55,7.70
2010,05,20,04,56,7.70
2010,05,20,04,57,7.70
2010,05,20,04,58,7.60
2010,05,20,04,59,7.60
2010,05,20,05,00,7.60
2010,05,20,05,01,7.60
2010,05,20,05,02,7.60
2010,05,20,05,03,7.60
2010,05,20,05,04,7.60
2010,05,20,05,05,7.50
2010,05,20,05,06,7.50
2010,05,20,05,07,7.50
2010,05,20,05,08,7.50
2010,05,20,05,09,7.60
2010,05,20,05,10,7.60
2010,05,20,05,11,7.60
2010,05,20,05,12,7.60
2010,05,20,05,13,7.60
2010,05,20,05,14,7.60
2010,05,20,05,15,7.60
2010,05,20,05,16,7.60
2010,05,20,05,17,7.70
2010,05,20,05,18,7.70
2010,05,20,05,19,7.70
2010,05,20,05,20,7.70
2010,05,20,05,21,7.70
2010,05,20,05,22,7.80
2010,05,20,05,23,7.70
2010,05,20,05,24,7.70
2010,05,20,05,25,7.70
2010,05,20,05,26,7.70
2010,05,20,05,27,7.70
2010,05,20,05,28,7.70
2010,05,20,05,29,7.70
2010,05,20,05,30,7.70
2010,05,20,05,31,7.70
2010,05,20,05,32,7.70
2010,05,20,05,33,7.70
2010,05,20,05,34,7.60
2010,05,20,05,35,7.60
2010,05,20,05,36,7.60
2010,05,20,05,37,7.60
2010,05,20,05,38,7.60
2010,05,20,05,39,7.60
2010,05,20,05,40,7.50
2010,05,20,05,41,7.50
2010,05,20,05,42,7.40
2010,05,20,05,43,7.40
2010,05,20,05,44,7.40
2010,05,20,05,45,7.40
2010,05,20,05,46,7.40
2010,05,20,05,47,7.40
2010,05,20,05,48,7.50
2010,05,20,05,49,7.50
2010,05,20,05,50,7.50
2010,05,20,05,51,7.60
2010,05,20,05,52,7.50
2010,05,20,05,53,7.50
2010,05,20,05,54,7.40
2010,05,20,05,55,7.40
2010,05,20,05,56,7.40
2010,05,20,05,57,7.40
2010,05,20,05,58,7.40
2010,05,20,05,59,7.40
2010,05,20,06,00,7.40
2010,05,20,06,01,7.40
2010,05,20,06,02,7.40
2010,05,20,06,03,7.40
2010,05,20,06,04,7.40
2010,05,20,06,05,7.40
2010,05,20,06,06,7.40
2010,05,20,06,07,7.40
2010,05,20,06,08,7.40
2010,05,20,06,09,7.40
2010,05,20,06,10,7.40
2010,05,20,06,11,7.40
2010,05,20,06,12,7.40
2010,05,20,06,13,7.40
2010,05,20,06,14,7.40
2010,05,20,06,15,7.40
2010,05,20,06,16,7.40
2010,05,20,06,17,7.40
2010,05,20,06,18,7.40
2010,05,20,06,19,7.40
2010,05,20,06,20,7.40
2010,05,20,06,21,7.40
2010,05,20,06,22,7.40
2010,05,20,06,23,7.40
2010,05,20,06,24,7.40
2010,05,20,06,25,7.40
2010,05,20,06,26,7.40
2010,05,20,06,27,7.40
2010,05,20,06,28,7.40
2010,05,20,06,29,7.40
2010,05,20,06,30,7.40
2010,05,20,06,31,7.40
2010,05,20,06,32,7.40
2010,05,20,06,33,7.40
2010,05,20,06,34,7.40
2010,05,20,06,35,7.40
2010,05,20,06,36,7.40
2010,05,20,06,37,7.40
2010,05,20,06,38,7.40
2010,05,20,06,39,7.40
2010,05,20,06,40,7.40
2010,05,20,06,41,7.40
2010,05,20,06,42,7.40
2010,05,20,06,43,7.40
2010,05,20,06,44,7.40
2010,05,20,06,45,7.40
2010,05,20,06,46,7.40
2010,05,20,06,47,7.40
2010,05,20,06,48,7.40
2010,05,20,06,49,7.40
2010,05,20,06,50,7.40
2010,05,20,06,51,7.40
2010,05,20,06,52,7.50
2010,05,20,06,53,7.50
2010,05,20,06,54,7.50
2010,05,20,06,55,7.40
2010,05,20,06,56,7.40
2010,05,20,06,57,7.50
2010,05,20,06,58,7.40
2010,05,20,06,59,7.40
2010,05,20,07,00,7.40
2010,05,20,07,01,7.40
2010,05,20,07,02,7.50
2010,05,20,07,03,7.50
2010,05,20,07,04,7.50
2010,05,20,07,05,7.50
2010,05,20,07,06,7.50
2010,05,20,07,07,7.50
2010,05,20,07,08,7.40
2010,05,20,07,09,7.50
2010,05,20,07,10,7.50
2010,05,20,07,11,7.40
2010,05,20,07,12,7.40
2010,05,20,07,13,7.40
2010,05,20,07,14,7.40
2010,05,20,07,15,7.40
2010,05,20,07,16,7.30
2010,05,20,07,17,7.30
2010,05,20,07,18,7.30
2010,05,20,07,19,7.30
2010,05,20,07,20,7.20
2010,05,20,07,21,7.20
2010,05,20,07,22,7.20
2010,05,20,07,23,7.20
2010,05,20,07,24,7.20
2010,05,20,07,25,7.20
2010,05,20,07,26,7.10
2010,05,20,07,27,7.10
2010,05,20,07,28,7.20
2010,05,20,07,29,7.20
2010,05,20,07,30,7.20
2010,05,20,07,31,7.10
2010,05,20,07,32,7.10
2010,05,20,07,33,7.10
2010,05,20,07,34,7.10
2010,05,20,07,35,7.10
2010,05,20,07,36,7.10
2010,05,20,07,37,7.20
2010,05,20,07,38,7.20
2010,05,20,07,39,7.20
2010,05,20,07,40,7.20
2010,05,20,07,41,7.20
2010,05,20,07,42,7.20
2010,05,20,07,43,7.20
2010,05,20,07,44,7.20
2010,05,20,07,45,7.20
2010,05,20,07,46,7.20
2010,05,20,07,47,7.10
2010,05,20,07,48,7.10
2010,05,20,07,49,7.10
2010,05,20,07,50,7.10
2010,05,20,07,51,7.10
2010,05,20,07,52,7.10
2010,05,20,07,53,7.10
2010,05,20,07,54,7.20
2010,05,20,07,55,7.10
2010,05,20,07,56,7.10
2010,05,20,07,57,7.10
2010,05,20,07,58,7.10
2010,05,20,07,59,7.10
2010,05,20,08,00,7.10
2010,05,20,08,01,7.00
2010,05,20,08,02,7.00
2010,05,20,08,03,7.00
2010,05,20,08,04,7.00
2010,05,20,08,05,7.00
2010,05,20,08,06,6.90
2010,05,20,08,07,6.90
2010,05,20,08,08,6.90
2010,05,20,08,09,6.80
2010,05,20,08,10,6.80
2010,05,20,08,11,6.80
2010,05,20,08,12,6.80
2010,05,20,08,13,6.80
2010,05,20,08,14,6.80
2010,05,20,08,15,6.70
2010,05,20,08,16,6.70
2010,05,20,08,17,6.70
2010,05,20,08,18,6.70
2010,05,20,08,19,6.70
2010,05,20,08,20,6.70
2010,05,20,08,21,6.70
2010,05,20,08,22,6.70
2010,05,20,08,23,6.70
2010,05,20,08,24,6.60
2010,05,20,08,25,6.60
2010,05,20,08,26,6.60
2010,05,20,08,27,6.60
2010,05,20,08,28,6.50
2010,05,20,08,29,6.50
2010,05,20,08,30,6.50
2010,05,20,08,31,6.40
2010,05,20,08,32,6.40
2010,05,20,08,33,6.40
2010,05,20,08,34,6.40
2010,05,20,08,35,6.40
2010,05,20,08,36,6.40
2010,05,20,08,37,6.30
2010,05,20,08,38,6.30
2010,05,20,08,39,6.30
2010,05,20,08,40,6.30
2010,05,20,08,41,6.30
2010,05,20,08,42,6.30
2010,05,20,08,43,6.30
2010,05,20,08,44,6.30
2010,05,20,08,45,6.30
2010,05,20,08,46,6.20
2010,05,20,08,47,6.20
2010,05,20,08,48,6.20
2010,05,20,08,49,6.20
2010,05,20,08,50,6.20
2010,05,20,08,51,6.10
2010,05,20,08,52,6.10
2010,05,20,08,53,6.10
2010,05,20,08,54,6.00
2010,05,20,08,55,5.90
2010,05,20,08,56,5.90
2010,05,20,08,57,5.80
2010,05,20,08,58,5.80
2010,05,20,08,59,5.80
2010,05,20,09,00,5.80
2010,05,20,09,01,5.80
2010,05,20,09,02,5.80
2010,05,20,09,03,5.70
2010,05,20,09,04,5.70
2010,05,20,09,05,5.70
2010,05,20,09,06,5.70
2010,05,20,09,07,5.70
2010,05,20,09,08,5.70
2010,05,20,09,09,5.70
2010,05,20,09,10,5.70
2010,05,20,09,11,5.70
2010,05,20,09,12,5.70
2010,05,20,09,13,5.70
2010,05,20,09,14,5.70
2010,05,20,09,16,5.70
2010,05,20,09,17,5.70
2010,05,20,09,18,5.70
2010,05,20,09,19,5.70
2010,05,20,09,20,5.60
2010,05,20,09,23,5.60
2010,05,20,09,24,5.60
2010,05,20,09,25,5.60
2010,05,20,11,59,6.90
2010,05,20,12,00,6.90
2010,05,20,12,01,7.00
2010,05,20,12,02,7.00
2010,05,20,12,03,7.10
2010,05,20,12,04,7.20
2010,05,20,12,05,7.20
2010,05,20,12,06,7.20
2010,05,20,12,07,7.20
2010,05,20,12,08,7.30
2010,05,20,12,09,7.30
2010,05,20,12,10,7.40
2010,05,20,12,11,7.40
2010,05,20,12,12,7.50
2010,05,20,12,13,7.60
2010,05,20,12,14,7.60
2010,05,20,12,15,7.60
2010,05,20,12,16,7.60
2010,05,20,12,17,7.60
2010,05,20,12,18,7.70
2010,05,20,12,19,7.70
2010,05,20,12,20,7.70
2010,05,20,12,21,7.70
2010,05,20,12,22,7.70
2010,05,20,23,10,5.20
2010,05,20,23,11,5.20
2010,05,20,23,12,5.20
2010,05,20,23,13,5.20
2010,05,20,23,14,5.20
2010,05,20,23,15,5.20
2010,05,20,23,16,5.20
2010,05,20,23,17,5.20
2010,05,20,23,18,5.20
2010,05,20,23,19,5.20
2010,05,20,23,20,5.20
2010,05,20,23,21,5.20
2010,05,20,23,22,5.20
2010,05,20,23,23,5.20
2010,05,20,23,24,5.30
2010,05,20,23,25,5.20
2010,05,20,23,26,5.20
2010,05,20,23,27,5.20
2010,05,20,23,28,5.20
2010,05,20,23,29,5.20
2010,05,20,23,30,5.20
2010,05,20,23,31,5.20
2010,05,20,23,32,5.20
2010,05,20,23,33,5.20
2010,05,20,23,34,5.20
2010,05,20,23,35,5.20
2010,05,20,23,36,5.20
2010,05,20,23,37,5.20
2010,05,20,23,38,5.20
2010,05,20,23,39,5.20
2010,05,20,23,40,5.20
2010,05,20,23,41,5.20
2010,05,20,23,42,5.20
2010,05,20,23,43,5.20
2010,05,20,23,44,5.10
2010,05,20,23,45,5.10
2010,05,20,23,46,5.10
2010,05,20,23,47,5.10
2010,05,20,23,48,5.10
2010,05,20,23,49,5.10
2010,05,20,23,50,5.10
2010,05,20,23,51,5.10
2010,05,20,23,52,5.10
2010,05,20,23,53,5.10
2010,05,20,23,54,5.10
2010,05,20,23,55,5.10
2010,05,20,23,56,5.10
2010,05,20,23,57,5.10
2010,05,20,23,58,5.10
2010,05,20,23,59,5.10
